Temperature
23 20 20 20 21 21 21 21 20 21 22 21 20 20 20 21 21 20 20 20 20 20 20 20 20 19 19 19 18 18 18 17 17 17 16 16 16 16 16 16 16 16 16 15
20 20 21 22 22 22 21 21 21 21 22 21 20 20 20 20 20 20 20 20 20 20 20 20 19 19 19 19 18 18 18 17 17 17 16 16 16 16 16 16 15 15 15 15
20 21 23 23 22 22 22 21 21 21 21 21 20 19 19 20 20 21 21 20 20 20 20 20 19 19 19 19 18 18 18 17 17 17 16 16 16 16 16 15 15 15 15 15
21 22 23 23 23 22 21 22 22 22 20 19 20 18 19 19 19 19 20 20 20 20 20 20 19 19 19 19 18 18 17 17 17 17 16 16 16 16 15 15 15 15 15 15
21 22 22 22 23 23 22 23 22 22 20 19 19 18 18 18 18 18 19 20 20 20 20 20 19 19 19 19 18 18 17 17 17 16 16 16 16 16 15 15 15 15 15 15
21 23 23 23 23 23 22 21 20 18 18 18 19 18 18 18 19 19 19 20 20 20 20 20 19 19 19 18 18 18 17 17 17 16 16 16 16 16 16 15 15 15 15 15
21 22 23 23 22 22 21 18 18 18 17 17 19 18 18 19 19 19 19 19 20 20 20 20 19 19 19 18 18 18 17 17 17 16 16 16 16 16 16 15 15 15 15 15
19 20 21 22 22 21 20 19 18 18 18 18 19 18 19 20 20 20 20 20 20 20 20 20 19 19 19 18 18 18 17 17 17 16 16 16 16 16 16 16 15 15 15 15
18 19 21 22 22 21 20 19 18 17 18 18 18 19 20 20 19 19 19 19 19 20 20 20 19 19 19 18 18 18 17 17 17 16 16 16 16 16 16 16 16 15 15 15
19 19 21 22 22 22 21 19 17 18 18 17 18 18 18 18 18 18 18 19 19 20 20 19 19 19 19 18 18 18 17 17 17 17 16 16 16 16 16 16 16 15 15 15
18 18 19 20 20 20 20 20 18 16 16 17 17 18 19 18 18 18 18 19 19 19 19 19 19 19 19 18 18 18 17 17 17 16 16 16 16 16 16 16 16 16 15 15
17 16 17 18 20 20 20 19 17 17 17 16 16 17 20 18 19 19 19 19 19 19 19 19 19 19 18 18 18 18 17 17 17 16 16 16 16 16 16 16 16 15 15 15
17 16 16 17 18 19 20 20 18 16 16 15 16 17 19 18 18 19 19 19 19 19 19 19 18 18 18 18 18 17 17 17 17 16 16 16 16 16 16 16 16 15 15 15
17 15 16 17 17 18 19 19 19 17 16 16 17 18 19 18 18 18 19 19 19 19 19 18 18 18 18 18 17 17 17 17 16 16 16 16 16 16 16 16 15 15 15 15
16 16 17 17 18 19 19 19 19 18 17 16 17 18 18 18 18 18 19 19 19 18 18 18 18 18 18 17 17 17 17 16 16 16 16 16 16 16 16 15 15 15 15 15
15 16 17 17 18 18 18 18 19 19 18 17 17 17 18 18 18 18 18 18 18 18 18 18 18 18 18 17 17 17 17 16 16 16 16 16 16 15 15 15 15 15 15 15
14 15 15 15 17 17 17 18 18 18 18 18 17 17 17 17 17 18 18 18 18 18 18 18 18 18 17 17 17 17 16 16 16 16 16 15 15 15 15 15 15 15 14 14
14 14 13 14 16 16 17 17 18 18 18 18 17 17 17 18 18 18 19 18 18 18 18 18 18 17 17 17 17 16 16 16 16 16 15 15 15 15 15 15 14 14 14 14
14 13 13 13 14 15 17 18 18 17 17 17 17 17 17 18 17 17 18 18 18 18 18 18 17 17 17 17 16 16 16 16 16 15 15 15 15 15 15 14 14 14 14 14
13 13 13 13 14 14 16 18 19 17 16 17 17 16 17 17 14 15 17 18 18 18 18 18 17 17 17 16 16 16 16 15 15 15 15 15 14 14 14 14 14 14 14 14
13 13 12 12 13 14 16 18 18 16 16 17 17 17 17 16 16 17 17 17 17 17 17 17 17 16 16 16 16 16 15 15 15 15 15 14 14 14 14 14 14 14 13 13
13 13 12 12 13 14 16 17 16 16 17 17 17 17 17 17 17 17 17 17 17 17 17 17 16 16 16 16 15 15 15 15 15 15 14 14 14 14 14 14 13 13 13 13
12 13 12 13 14 15 17 17 18 18 17 17 17 17 17 17 16 16 16 16 16 16 16 16 16 16 15 15 15 15 15 15 14 14 14 14 14 14 14 13 13 13 13 13
12 13 12 13 14 15 17 17 17 17 17 17 17 17 17 16 16 16 16 16 16 16 15 15 15 15 15 15 15 15 15 14 14 14 14 14 14 13 13 13 13 13 13 12
12 12 12 12 13 15 16 16 17 17 17 17 17 16 16 16 16 15 15 15 15 15 15 15 15 15 14 15 14 14 14 14 14 14 14 13 13 13 13 13 13 13 12 12
11 12 12 12 14 13 15 16 16 16 16 16 16 16 15 15 15 15 15 15 15 14 14 14 14 14 14 14 14 14 14 14 14 13 13 13 13 12 12 12 12 12 12 12
Wind_Speed
2 4 2 5 6 6 4 4 3 3 3 4 3 2 3 3 5 5 5 6 6 7 6 6 7 7 7 7 7 6 6 5 5 3 3 3 2 1 1 2 3 5 5 6
4 2 7 5 3 4 5 4 2 1 2 4 2 2 3 2 6 8 9 8 7 6 5 6 6 6 7 7 7 6 6 5 4 3 2 2 2 1 1 1 3 3 5 5
6 6 4 3 3 3 3 6 5 4 0 2 3 4 3 3 1 3 5 7 8 10 9 8 8 7 8 7 7 7 6 5 4 4 3 3 3 3 3 2 1 1 3 3
3 5 2 2 2 4 3 4 5 5 3 2 2 1 6 3 0 2 3 5 8 9 9 9 8 8 8 8 7 7 6 5 5 5 5 5 3 2 1 1 0 0 1 3
3 2 2 3 3 3 4 4 3 3 3 0 0 2 6 1 2 4 4 5 8 9 10 10 9 9 8 7 7 6 6 5 4 5 6 5 3 2 1 1 1 0 0 2
4 3 3 3 2 3 4 5 5 5 4 1 4 5 5 3 6 5 4 5 7 8 9 9 7 7 6 6 7 6 6 4 4 4 5 5 5 3 2 1 1 1 0 0
3 3 2 2 1 2 5 6 3 3 2 5 3 3 6 6 5 7 7 6 7 8 8 8 8 8 7 7 7 6 7 5 4 4 4 5 5 5 4 3 3 2 1 1
1 4 4 2 5 4 4 8 6 4 4 4 2 3 4 4 2 4 5 5 5 7 8 9 9 9 8 8 7 7 6 5 4 4 4 4 4 4 3 4 4 4 3 3
4 4 4 2 2 6 4 4 7 6 2 1 3 2 3 3 4 5 5 5 6 7 8 9 8 8 8 8 7 7 7 5 5 4 4 4 4 4 4 4 3 3 3 3
5 2 4 3 3 1 5 6 5 4 3 2 3 3 4 4 3 4 4 5 4 6 7 8 8 8 7 7 6 6 7 6 4 4 4 3 3 4 4 3 3 3 3 3
3 3 3 2 2 3 1 2 4 4 5 5 3 5 5 8 6 6 5 5 5 6 7 7 7 7 7 6 6 6 5 5 4 4 3 3 2 3 3 3 4 4 3 3
2 4 2 5 6 3 5 5 5 4 2 4 4 6 4 6 6 6 5 5 4 5 6 6 6 5 5 6 5 5 5 5 4 4 4 4 3 2 2 3 3 3 3 3
3 4 2 4 5 3 0 2 4 5 4 4 4 5 2 3 4 4 5 4 4 4 5 5 5 5 5 5 5 4 5 5 4 4 4 3 3 2 2 2 2 3 3 2
4 4 6 8 6 3 3 3 3 5 4 4 6 5 3 2 4 4 4 4 5 5 5 5 5 4 4 4 4 4 4 4 4 4 4 4 4 3 3 2 2 2 2 3
4 3 4 5 5 4 4 6 5 5 7 7 7 7 7 7 6 5 5 4 5 5 5 5 5 5 5 4 3 3 3 3 4 4 4 4 4 3 2 2 2 2 2 2
3 1 1 3 3 3 5 7 7 6 6 6 5 6 5 4 3 3 4 6 5 5 5 4 5 5 5 5 5 3 3 3 4 5 4 4 3 3 3 3 2 2 1 1
1 2 1 4 4 3 6 7 8 6 5 7 8 8 4 3 5 6 5 6 6 6 5 5 5 5 6 5 5 4 4 3 3 4 4 4 4 4 3 3 2 2 2 1
5 3 2 1 1 6 8 5 5 5 4 5 5 5 7 7 5 4 4 5 4 4 4 4 4 4 4 4 4 4 3 3 3 3 4 4 4 4 4 3 3 3 2 2
7 6 3 2 3 6 7 4 3 4 4 3 5 5 4 5 4 2 0 4 4 4 4 4 5 4 4 4 4 3 3 3 3 3 4 5 5 5 4 5 5 3 2 2
4 6 5 4 3 6 8 6 2 4 3 4 4 6 5 5 3 4 3 1 2 2 3 3 3 3 3 3 4 4 4 4 4 5 5 4 5 5 6 6 5 3 3 3
2 3 5 5 5 7 8 5 2 4 7 4 5 7 6 5 6 6 3 2 2 2 2 2 3 3 3 3 4 5 4 5 6 5 4 4 5 5 5 5 4 3 3 2
6 5 6 6 5 8 5 2 5 7 3 4 5 5 4 4 4 4 3 2 2 1 1 2 3 3 3 4 4 5 5 6 4 4 4 4 4 5 4 4 4 4 4 3
6 7 6 8 8 6 4 4 4 3 3 3 4 3 4 4 3 3 2 2 2 2 2 2 3 3 3 4 5 5 6 5 4 4 4 4 4 4 4 5 5 4 4 4
4 1 2 3 5 4 3 1 0 2 3 3 4 4 4 4 3 3 2 2 2 2 2 3 3 3 3 4 4 5 5 5 4 4 3 3 3 3 3 4 5 5 5 5
6 2 2 4 5 3 3 2 1 0 1 2 2 3 4 4 4 3 3 3 3 3 3 3 4 4 5 4 4 4 4 5 5 4 3 3 3 3 3 4 4 6 6 7
6 6 5 7 7 5 7 5 3 2 2 3 2 2 2 3 4 3 3 3 3 3 2 3 3 4 5 4 4 4 5 6 6 4 4 3 3 3 3 3 2 4 4 6
Wind_Direction
23 81 198 216 202 184 163 141 158 206 176 124 158 217 239 193 168 171 176 181 179 183 186 164 153 143 131 131 130 128 125 125 115 104 101 95 85 71 59 82 107 117 119 117
35 262 238 217 200 156 145 143 167 212 152 131 159 256 258 199 188 182 180 185 182 171 158 158 146 139 138 140 141 139 143 139 131 129 133 133 129 111 80 43 73 111 123 126
187 237 233 186 167 153 182 175 183 180 161 73 83 345 306 292 202 175 184 184 180 175 171 167 153 148 142 143 151 153 152 146 143 132 108 83 63 47 36 30 36 83 128 134
225 248 209 171 184 162 210 208 168 153 122 273 121 274 286 262 238 183 188 180 178 175 169 164 162 156 154 159 154 145 147 150 147 132 127 128 125 140 206 208 230 68 143 141
253 223 166 186 209 168 193 174 147 154 145 350 223 167 281 253 218 232 213 188 178 175 171 171 170 165 159 154 149 147 143 146 149 142 144 139 137 170 189 138 116 72 39 155
244 243 193 198 207 165 134 72 43 52 77 306 231 174 266 223 214 210 208 191 174 171 169 169 163 151 148 148 146 145 146 150 155 152 150 151 157 163 151 142 143 166 225 100
319 299 256 171 98 16 94 89 37 359 11 254 244 170 240 233 212 186 186 187 175 163 160 155 150 155 159 157 156 156 158 164 169 161 165 168 170 172 176 183 179 173 170 196
186 279 267 208 170 179 170 141 157 195 217 270 330 201 251 253 190 154 156 158 152 156 160 161 162 163 162 159 159 161 165 169 176 169 177 183 178 174 183 188 179 184 193 203
172 248 285 262 170 145 143 167 170 148 199 251 297 300 325 25 70 93 110 122 150 165 164 164 163 162 164 163 167 168 167 171 183 183 181 191 192 185 188 192 183 187 197 196
159 214 280 301 44 45 155 151 105 130 165 241 282 244 223 209 164 130 126 141 161 169 165 163 167 170 171 171 170 167 166 175 180 179 181 185 198 192 186 181 186 193 196 183
123 153 292 353 190 209 132 128 123 132 153 158 228 262 221 192 179 167 164 160 159 168 168 166 174 176 168 163 164 168 172 172 176 182 182 173 190 187 173 178 192 192 183 172
104 124 225 255 265 212 163 164 141 151 204 168 175 263 266 177 167 155 157 160 159 158 165 163 163 160 162 169 172 175 175 178 188 188 179 182 182 173 177 187 193 178 175 183
103 110 89 330 330 353 159 173 149 138 130 161 175 256 319 129 142 156 150 150 145 139 141 144 147 157 169 176 181 181 182 188 188 174 171 175 177 172 183 190 186 171 170 179
123 124 172 199 215 224 249 252 173 137 162 204 214 222 242 192 169 178 172 160 147 143 147 150 157 165 174 179 183 183 196 197 186 173 172 181 194 194 192 181 173 161 158 165
99 163 210 231 236 223 236 245 223 194 189 191 218 211 219 203 193 187 178 160 143 152 160 166 171 175 174 177 183 177 190 195 187 176 183 198 195 187 173 163 166 155 152 175
65 161 229 273 262 257 263 252 236 221 204 199 201 235 232 199 170 159 167 161 160 173 177 174 175 177 179 182 185 185 196 202 185 183 199 198 182 175 172 173 166 151 144 148
128 125 128 265 295 340 267 238 222 217 207 186 206 223 189 164 173 181 183 175 176 179 174 176 185 187 188 187 180 182 195 190 182 190 196 194 187 185 188 182 162 171 177 168
161 139 145 228 346 238 249 253 210 195 224 211 191 188 175 175 178 182 172 167 169 171 169 181 178 181 190 187 182 180 168 160 170 189 201 199 190 191 188 173 178 184 178 177
174 156 147 158 226 273 284 263 179 171 239 230 177 169 154 137 87 14 228 161 173 182 184 191 188 182 178 182 181 163 160 164 170 194 208 206 197 192 186 188 192 187 173 185
135 135 145 160 196 237 250 256 199 122 237 250 160 155 153 122 136 242 256 191 181 183 177 175 168 144 158 188 174 163 179 183 199 212 216 210 200 196 197 198 193 185 180 193
127 143 170 182 216 257 255 270 107 169 232 219 174 167 166 177 193 204 210 198 191 192 189 163 151 163 192 190 168 177 194 213 219 214 209 209 208 203 203 198 190 181 179 180
186 182 190 175 203 248 253 162 182 212 202 174 173 175 173 177 172 175 171 173 171 173 193 173 171 198 206 185 171 184 210 224 222 208 208 216 213 211 207 192 193 185 176 179
204 199 196 194 214 240 235 209 221 176 172 184 171 174 158 163 179 183 188 185 198 205 215 203 194 206 219 204 187 199 219 212 202 202 212 219 219 213 201 192 190 185 181 187
271 235 177 238 255 258 265 242 264 174 179 190 178 168 160 177 190 200 207 220 218 225 222 215 201 208 227 223 213 215 216 196 184 194 210 210 210 221 209 197 193 192 193 196
231 211 214 250 267 302 287 246 217 270 151 153 169 172 176 178 197 209 220 231 231 234 229 207 204 216 227 226 228 227 207 186 184 194 200 205 208 217 210 209 210 206 209 202
213 200 206 235 233 223 249 246 210 199 208 198 206 237 208 191 204 220 229 232 230 232 232 225 225 224 230 225 227 228 206 190 186 194 202 202 204 210 207 206 247 247 226 219
Height
1522 1527 1532 1529 1527 1528 1531 1536 1539 1535 1529 1531 1535 1535 1531 1530 1530 1531 1532 1533 1534 1535 1537 1538 1540 1541 1542 1543 1543 1544 1544 1545 1545 1545 1545 1546 1546 1547 1547 1547 1547 1547 1547 1546
1528 1530 1523 1521 1522 1525 1530 1537 1538 1533 1528 1531 1535 1534 1530 1528 1528 1529 1530 1531 1532 1534 1536 1538 1539 1541 1541 1542 1543 1544 1545 1545 1545 1545 1546 1546 1546 1547 1547 1547 1547 1547 1547 1547
1530 1525 1519 1521 1523 1527 1530 1534 1535 1534 1531 1530 1535 1540 1534 1529 1527 1528 1528 1529 1530 1532 1534 1536 1538 1540 1541 1542 1543 1544 1545 1545 1545 1546 1546 1546 1546 1546 1547 1547 1547 1547 1547 1547
1524 1519 1519 1521 1523 1525 1533 1525 1526 1530 1538 1544 1541 1555 1539 1532 1529 1527 1527 1527 1528 1530 1532 1534 1536 1538 1540 1541 1543 1544 1544 1545 1545 1546 1546 1546 1546 1546 1547 1547 1547 1547 1548 1548
1524 1519 1520 1523 1521 1520 1525 1522 1525 1529 1536 1544 1543 1551 1544 1533 1532 1528 1525 1525 1526 1528 1530 1533 1535 1537 1539 1541 1542 1543 1544 1545 1545 1546 1546 1546 1546 1547 1547 1547 1547 1547 1548 1548
1520 1516 1517 1518 1516 1517 1519 1525 1529 1536 1543 1556 1544 1550 1547 1536 1528 1525 1524 1524 1524 1526 1529 1531 1534 1537 1538 1540 1541 1542 1543 1544 1545 1546 1546 1546 1546 1547 1547 1547 1547 1547 1548 1548
1524 1519 1515 1515 1519 1519 1523 1539 1555 1556 1562 1558 1540 1544 1541 1525 1521 1521 1521 1522 1523 1525 1527 1530 1533 1535 1537 1538 1540 1541 1543 1544 1544 1545 1546 1546 1546 1547 1547 1547 1547 1547 1547 1547
1535 1533 1518 1514 1518 1524 1525 1535 1556 1563 1564 1555 1541 1544 1533 1520 1518 1518 1519 1520 1522 1524 1526 1529 1531 1533 1536 1538 1539 1541 1542 1543 1544 1545 1545 1546 1546 1547 1547 1547 1547 1547 1547 1547
1534 1532 1516 1513 1513 1517 1526 1532 1533 1548 1550 1555 1549 1538 1528 1521 1519 1519 1520 1521 1522 1524 1526 1528 1530 1532 1534 1536 1538 1540 1541 1542 1543 1544 1544 1545 1546 1546 1546 1547 1547 1547 1547 1547
1524 1530 1520 1514 1513 1514 1518 1524 1537 1545 1556 1562 1551 1544 1540 1528 1524 1522 1521 1521 1522 1524 1525 1527 1529 1531 1534 1536 1537 1539 1540 1541 1542 1543 1544 1544 1545 1545 1546 1546 1546 1546 1546 1546
1521 1530 1526 1521 1521 1522 1522 1525 1532 1542 1547 1558 1559 1548 1523 1522 1521 1521 1521 1521 1522 1523 1525 1527 1528 1530 1533 1535 1536 1538 1539 1540 1541 1542 1543 1543 1544 1544 1545 1545 1545 1545 1545 1545
1521 1530 1534 1526 1517 1514 1517 1522 1530 1543 1547 1548 1553 1546 1516 1516 1517 1519 1520 1521 1522 1523 1524 1526 1528 1530 1532 1533 1535 1536 1537 1538 1539 1540 1541 1542 1543 1543 1543 1544 1544 1544 1544 1544
1520 1530 1540 1537 1531 1521 1519 1519 1523 1532 1541 1548 1551 1541 1517 1517 1518 1519 1520 1521 1522 1523 1524 1526 1528 1529 1531 1532 1534 1535 1536 1537 1538 1539 1540 1540 1541 1541 1542 1542 1542 1543 1543 1543
1517 1528 1536 1539 1533 1525 1523 1520 1520 1529 1542 1543 1539 1531 1522 1520 1519 1519 1520 1521 1522 1523 1524 1525 1527 1528 1529 1531 1532 1533 1534 1535 1536 1537 1538 1538 1539 1539 1540 1540 1541 1541 1541 1541
1518 1526 1525 1524 1520 1519 1519 1519 1518 1523 1528 1535 1530 1526 1520 1518 1517 1518 1519 1519 1521 1522 1523 1524 1525 1527 1528 1529 1530 1531 1532 1533 1534 1535 1536 1536 1537 1537 1538 1538 1539 1539 1539 1539
1520 1524 1523 1523 1518 1517 1518 1516 1516 1517 1519 1522 1522 1522 1514 1515 1516 1517 1518 1518 1519 1520 1521 1522 1524 1525 1526 1527 1528 1528 1530 1531 1532 1532 1533 1534 1535 1535 1535 1536 1536 1536 1537 1537
1523 1526 1529 1532 1522 1520 1524 1514 1512 1512 1511 1514 1520 1517 1513 1515 1515 1515 1516 1516 1517 1519 1519 1520 1522 1523 1524 1525 1526 1526 1527 1528 1529 1529 1530 1531 1532 1533 1533 1533 1534 1534 1534 1534
1521 1525 1531 1533 1528 1534 1518 1505 1505 1508 1508 1507 1508 1508 1509 1511 1513 1514 1515 1515 1516 1517 1518 1519 1519 1521 1522 1523 1524 1524 1525 1526 1526 1527 1527 1528 1529 1529 1530 1530 1530 1531 1531 1531
1513 1521 1530 1535 1534 1526 1512 1504 1503 1507 1509 1505 1506 1507 1508 1510 1512 1514 1514 1514 1515 1515 1516 1516 1517 1518 1519 1520 1521 1522 1522 1523 1523 1524 1524 1525 1525 1526 1526 1527 1527 1528 1528 1528
1511 1516 1527 1532 1533 1531 1513 1500 1498 1503 1511 1504 1503 1504 1507 1508 1515 1514 1512 1512 1513 1513 1513 1514 1515 1516 1516 1517 1518 1519 1519 1520 1520 1520 1521 1521 1522 1522 1523 1523 1523 1524 1524 1524
1517 1520 1525 1528 1530 1520 1504 1499 1499 1513 1510 1501 1501 1501 1504 1505 1507 1509 1509 1510 1510 1511 1511 1511 1512 1512 1513 1514 1515 1515 1516 1516 1517 1517 1518 1518 1519 1519 1519 1520 1520 1520 1521 1521
1515 1519 1522 1524 1527 1520 1498 1498 1501 1501 1497 1498 1498 1499 1501 1502 1503 1505 1506 1507 1507 1508 1508 1508 1508 1509 1510 1511 1511 1511 1512 1512 1513 1514 1514 1514 1515 1515 1516 1516 1516 1517 1517 1517
1508 1508 1509 1509 1508 1499 1495 1495 1495 1495 1495 1496 1497 1497 1498 1499 1500 1501 1503 1503 1504 1505 1505 1505 1505 1505 1506 1507 1507 1507 1508 1509 1509 1509 1509 1510 1510 1511 1511 1512 1512 1512 1513 1513
1503 1500 1502 1502 1497 1495 1494 1493 1494 1494 1494 1495 1495 1495 1496 1497 1497 1498 1499 1500 1500 1501 1501 1501 1501 1502 1502 1503 1503 1504 1504 1505 1505 1505 1505 1505 1506 1506 1507 1507 1507 1508 1508 1508
1500 1499 1500 1499 1495 1493 1492 1492 1492 1493 1493 1493 1493 1493 1494 1494 1494 1495 1495 1496 1497 1497 1497 1497 1497 1497 1498 1498 1499 1499 1500 1500 1500 1501 1501 1501 1501 1501 1502 1502 1503 1503 1503 1504
1494 1495 1497 1496 1491 1491 1489 1489 1489 1490 1490 1490 1490 1490 1490 1491 1491 1491 1492 1492 1493 1493 1493 1493 1493 1493 1493 1494 1494 1494 1495 1496 1496 1496 1496 1497 1497 1497 1497 1497 1498 1498 1500 1500